|
NORAD ID: 38046 Int'l Code: 2012-001A
Perigee: 506.9 km
Apogee: 511.6 km
Inclination: 97.4 °
Period: 94.7 minutes
Semi major axis: 6880 km
Launch date: January 9, 2012
Source: People's Republic of China (PRC)
Two Line Element Set (TLE):
1 38046U 12001A 13141.91271316 .00007773 00000-0 35114-3 0 5543
2 38046 097.4382 218.9653 0003384 001.2353 115.4793 15.21231078 75835
Source:
NASA's NSSDC Master Catalog entry for ZY 3
|